Time,TemperatureF,DewpointF,PressureIn,WindDirection,WindDirectionDegrees,WindSpeedMPH,WindSpeedGustMPH,Humidity,HourlyPrecipIn,Conditions,Clouds,dailyrainin,SoftwareType,DateUTC
2014-03-06 00:23:00,28.0,22.0,30.33,ENE,68,6.0,8.0,78,0.00,,,0.06,,2014-03-06 05:23:00,
2014-03-06 00:33:00,28.0,22.0,30.33,ENE,68,6.0,8.0,78,0.00,,,0.06,,2014-03-06 05:33:00,
2014-03-06 00:43:00,28.0,22.0,30.33,ENE,68,6.0,8.0,78,0.00,,,0.06,,2014-03-06 05:43:00,
2014-03-06 00:53:00,28.0,22.0,30.33,ENE,68,6.0,8.0,78,0.00,,,0.06,,2014-03-06 05:53:00,
2014-03-06 01:12:00,28.0,22.0,30.32,NE,56,3.0,9.0,79,0.00,,,0.06,,2014-03-06 06:12:00,
2014-03-06 01:22:00,28.0,22.0,30.32,NE,56,3.0,9.0,79,0.00,,,0.06,,2014-03-06 06:22:00,
2014-03-06 01:32:00,28.0,22.0,30.32,NE,56,3.0,9.0,79,0.00,,,0.06,,2014-03-06 06:32:00,
2014-03-06 01:52:00,27.0,22.0,30.31,NE,41,2.0,11.0,80,0.00,,,0.06,,2014-03-06 06:52:00,
2014-03-06 02:02:00,27.0,22.0,30.31,NE,41,2.0,11.0,80,0.00,,,0.06,,2014-03-06 07:02:00,
2014-03-06 02:11:00,27.0,22.0,30.31,NE,41,2.0,11.0,80,0.00,,,0.06,,2014-03-06 07:11:00,
2014-03-06 02:22:00,26.0,21.0,30.31,NE,45,2.0,11.0,80,0.00,,,0.06,,2014-03-06 07:22:00,
2014-03-06 02:42:00,26.0,21.0,30.31,NE,54,3.0,4.0,80,0.00,,,0.06,,2014-03-06 07:42:00,
2014-03-06 02:52:00,26.0,21.0,30.31,NE,54,3.0,4.0,80,0.00,,,0.06,,2014-03-06 07:52:00,
2014-03-06 03:22:00,26.0,21.0,30.30,ENE,57,3.0,7.0,81,0.00,,,0.06,,2014-03-06 08:22:00,
2014-03-06 03:42:00,26.0,21.0,30.30,ENE,67,3.0,5.0,81,0.00,,,0.06,,2014-03-06 08:42:00,
2014-03-06 03:52:00,25.0,20.0,30.30,NE,50,2.0,5.0,81,0.00,,,0.06,,2014-03-06 08:52:00,
2014-03-06 04:22:00,25.0,20.0,30.29,NE,41,2.0,6.0,81,0.00,,,0.06,,2014-03-06 09:22:00,
2014-03-06 04:33:00,25.0,20.0,30.29,NE,41,2.0,6.0,81,0.00,,,0.06,,2014-03-06 09:33:00,
2014-03-06 04:43:00,25.0,20.0,30.29,NE,41,2.0,6.0,81,0.00,,,0.06,,2014-03-06 09:43:00,
2014-03-06 04:53:00,24.0,19.0,30.28,NE,42,3.0,7.0,81,0.00,,,0.06,,2014-03-06 09:53:00,
2014-03-06 05:03:00,24.0,19.0,30.28,NE,42,3.0,7.0,81,0.00,,,0.06,,2014-03-06 10:03:00,
2014-03-06 05:23:00,24.0,19.0,30.29,NNE,33,4.0,8.0,80,0.00,,,0.06,,2014-03-06 10:23:00,
2014-03-06 05:42:00,24.0,19.0,30.29,NNE,33,1.0,7.0,80,0.00,,,0.06,,2014-03-06 10:42:00,
2014-03-06 05:53:00,24.0,19.0,30.29,NE,45,1.0,7.0,80,0.00,,,0.06,,2014-03-06 10:53:00,
2014-03-06 06:22:00,24.0,18.0,30.29,NE,54,4.0,8.0,79,0.00,,,0.06,,2014-03-06 11:22:00,
2014-03-06 06:52:00,23.0,17.0,30.29,NE,50,2.0,6.0,79,0.00,,,0.06,,2014-03-06 11:52:00,
2014-03-06 07:02:00,23.0,17.0,30.29,NE,50,2.0,6.0,79,0.00,,,0.06,,2014-03-06 12:02:00,
2014-03-06 07:22:00,23.0,17.0,30.28,NE,34,6.0,7.0,79,0.00,,,0.06,,2014-03-06 12:22:00,
2014-03-06 07:43:00,23.0,17.0,30.28,NE,56,2.0,9.0,78,0.00,,,0.06,,2014-03-06 12:43:00,
2014-03-06 07:52:00,23.0,17.0,30.27,NE,43,4.0,9.0,78,0.00,,,0.06,,2014-03-06 12:52:00,
2014-03-06 08:22:00,23.0,17.0,30.28,NE,53,2.0,9.0,77,0.00,,,0.06,,2014-03-06 13:22:00,
2014-03-06 08:42:00,24.0,18.0,30.29,NE,39,4.0,9.0,77,0.00,,,0.06,,2014-03-06 13:42:00,
2014-03-06 08:52:00,24.0,18.0,30.29,NE,39,4.0,9.0,77,0.00,,,0.06,,2014-03-06 13:52:00,
2014-03-06 09:22:00,26.0,19.0,30.30,East,79,3.0,9.0,74,0.00,,,0.06,,2014-03-06 14:22:00,
2014-03-06 09:42:00,26.0,19.0,30.30,ENE,71,2.0,3.0,73,0.00,,,0.06,,2014-03-06 14:42:00,
2014-03-06 09:52:00,27.0,19.0,30.30,East,83,4.0,4.0,72,0.00,,,0.06,,2014-03-06 14:52:00,
2014-03-06 10:12:00,28.0,19.0,30.28,ENE,63,2.0,7.0,69,0.00,,,0.06,,2014-03-06 15:12:00,
2014-03-06 10:23:00,28.0,19.0,30.28,ENE,63,2.0,7.0,69,0.00,,,0.06,,2014-03-06 15:23:00,
2014-03-06 10:43:00,30.0,21.0,30.27,ESE,112,2.0,5.0,68,0.00,,,0.06,,2014-03-06 15:43:00,
2014-03-06 10:54:00,30.0,21.0,30.27,ESE,112,2.0,5.0,68,0.00,,,0.06,,2014-03-06 15:54:00,
2014-03-06 11:13:00,32.0,22.0,30.28,SSW,208,2.0,7.0,67,0.00,,,0.06,,2014-03-06 16:13:00,
2014-03-06 11:23:00,32.0,22.0,30.28,SSW,208,2.0,7.0,67,0.00,,,0.06,,2014-03-06 16:23:00,
2014-03-06 11:42:00,34.0,23.0,30.28,ENE,63,1.0,3.0,63,0.00,,,0.06,,2014-03-06 16:42:00,
2014-03-06 11:53:00,36.0,23.0,30.27,ESE,118,2.0,6.0,60,0.00,,,0.06,,2014-03-06 16:53:00,
2014-03-06 12:22:00,38.0,25.0,30.26,NNE,25,2.0,6.0,60,0.00,,,0.06,,2014-03-06 17:22:00,
2014-03-06 12:43:00,39.0,25.0,30.25,NNE,31,3.0,5.0,57,0.01,,,0.07,,2014-03-06 17:43:00,
2014-03-06 12:52:00,39.0,25.0,30.25,NNE,31,3.0,5.0,57,0.01,,,0.07,,2014-03-06 17:52:00,
2014-03-06 13:22:00,41.0,26.0,30.22,ESE,114,2.0,8.0,54,0.01,,,0.07,,2014-03-06 18:22:00,
2014-03-06 13:43:00,42.0,25.0,30.22,East,84,1.0,3.0,51,0.01,,,0.05,,2014-03-06 18:43:00,
2014-03-06 13:52:00,42.0,25.0,30.21,NE,53,3.0,7.0,50,0.01,,,0.05,,2014-03-06 18:52:00,
2014-03-06 14:22:00,44.0,26.0,30.19,NE,46,3.0,8.0,49,0.01,,,0.05,,2014-03-06 19:22:00,
2014-03-06 14:42:00,45.0,24.0,30.17,ENE,70,3.0,8.0,44,0.00,,,0.04,,2014-03-06 19:42:00,
2014-03-06 14:52:00,45.0,24.0,30.17,ENE,70,3.0,8.0,44,0.00,,,0.04,,2014-03-06 19:52:00,
2014-03-06 15:11:00,46.0,25.0,30.16,NNE,30,3.0,8.0,43,0.00,,,0.04,,2014-03-06 20:11:00,
2014-03-06 15:22:00,46.0,25.0,30.16,NNE,30,3.0,8.0,43,0.00,,,0.04,,2014-03-06 20:22:00,
2014-03-06 15:42:00,46.0,25.0,30.15,NE,36,9.0,9.0,43,0.00,,,0.03,,2014-03-06 20:42:00,
2014-03-06 15:52:00,46.0,25.0,30.15,NE,36,9.0,9.0,43,0.00,,,0.03,,2014-03-06 20:52:00,
2014-03-06 16:11:00,47.0,26.0,30.14,NE,46,3.0,9.0,43,0.00,,,0.03,,2014-03-06 21:11:00,
2014-03-06 16:22:00,47.0,26.0,30.13,NE,35,9.0,9.0,44,0.00,,,0.03,,2014-03-06 21:22:00,
2014-03-06 16:33:00,47.0,26.0,30.13,NE,35,9.0,9.0,44,0.00,,,0.03,,2014-03-06 21:33:00,
2014-03-06 16:53:00,48.0,27.0,30.12,NE,43,3.0,8.0,43,0.00,,,0.02,,2014-03-06 21:53:00,
2014-03-06 17:13:00,48.0,25.0,30.11,NE,52,1.0,8.0,41,0.00,,,0.02,,2014-03-06 22:13:00,
2014-03-06 17:23:00,48.0,25.0,30.11,NE,52,1.0,8.0,41,0.00,,,0.02,,2014-03-06 22:23:00,
2014-03-06 17:43:00,48.0,25.0,30.11,NE,50,2.0,6.0,40,0.00,,,0.01,,2014-03-06 22:43:00,
2014-03-06 17:53:00,48.0,25.0,30.11,NE,50,2.0,6.0,40,0.00,,,0.01,,2014-03-06 22:53:00,
2014-03-06 18:22:00,46.0,26.0,30.11,East,95,1.0,6.0,45,0.00,,,0.01,,2014-03-06 23:22:00,
2014-03-06 18:42:00,45.0,27.0,30.11,East,86,0.0,4.0,49,0.00,,,0.01,,2014-03-06 23:42:00,
2014-03-06 18:53:00,44.0,27.0,30.11,East,85,1.0,4.0,50,0.00,,,0.01,,2014-03-06 23:53:00,
2014-03-06 19:12:00,44.0,27.0,30.11,East,85,1.0,4.0,51,0.00,,,0.01,,2014-03-07 00:12:00,
2014-03-06 19:22:00,44.0,27.0,30.11,East,85,1.0,4.0,51,0.00,,,0.01,,2014-03-07 00:22:00,
2014-03-06 19:42:00,41.0,27.0,30.12,East,85,2.0,2.0,57,0.00,,,0.01,,2014-03-07 00:42:00,
2014-03-06 19:52:00,40.0,26.0,30.13,East,86,2.0,3.0,58,0.00,,,0.01,,2014-03-07 00:52:00,
2014-03-06 20:22:00,39.0,26.0,30.13,ENE,74,1.0,3.0,60,0.00,,,0.01,,2014-03-07 01:22:00,
2014-03-06 20:42:00,39.0,25.0,30.12,ENE,73,0.0,3.0,58,0.00,,,0.01,,2014-03-07 01:42:00,
2014-03-06 20:52:00,39.0,26.0,30.12,ENE,74,0.0,3.0,59,0.00,,,0.01,,2014-03-07 01:52:00,
2014-03-06 21:22:00,36.0,26.0,30.12,ENE,73,0.0,3.0,66,0.00,,,0.01,,2014-03-07 02:22:00,
2014-03-06 21:42:00,35.0,26.0,30.13,ENE,73,0.0,0.0,68,0.00,,,0.01,,2014-03-07 02:42:00,
2014-03-06 21:52:00,35.0,26.0,30.13,ENE,73,0.0,0.0,68,0.00,,,0.01,,2014-03-07 02:52:00,
2014-03-06 22:12:00,32.0,25.0,30.13,NE,35,0.0,3.0,75,0.00,,,0.01,,2014-03-07 03:12:00,
2014-03-06 22:22:00,32.0,25.0,30.13,NE,55,0.0,3.0,75,0.00,,,0.01,,2014-03-07 03:22:00,
2014-03-06 22:53:00,30.0,24.0,30.12,NE,56,0.0,0.0,79,0.00,,,0.01,,2014-03-07 03:53:00,
2014-03-06 23:13:00,29.0,24.0,30.12,NE,55,0.0,2.0,81,0.00,,,0.01,,2014-03-07 04:13:00,
2014-03-06 23:23:00,29.0,24.0,30.12,NE,55,0.0,2.0,81,0.00,,,0.01,,2014-03-07 04:23:00,
2014-03-06 23:33:00,29.0,24.0,30.12,NE,55,0.0,2.0,81,0.00,,,0.01,,2014-03-07 04:33:00,
2014-03-06 23:43:00,29.0,24.0,30.12,NE,55,0.0,2.0,81,0.00,,,0.01,,2014-03-07 04:43:00,